This is the latest recevied weather packets stored in our database for station/object N9BID. If no packets are shown the sender has not sent any weather packets the latest 10 day(s).
| Time | Temp. | Humidity | Pressure | Rain* | Wind** | Luminosity | Snow |
|---|---|---|---|---|---|---|---|
| 1788571857 | 23.33° C | 96% | 1013.8 hPa | 0 mm | - | 0 W/m² | - |
| 1788571556 | 23.33° C | 96% | 1013.9 hPa | 0 mm | - | 0 W/m² | - |
| 1788571254 | 23.89° C | 96% | 1013.9 hPa | 0 mm | - | 0 W/m² | - |
| 1788570949 | 23.89° C | 94% | 1014.1 hPa | 0 mm | - | 0 W/m² | - |
| 1788570644 | 23.89° C | 93% | 1013.6 hPa | 0 mm | - | 0 W/m² | - |
| 1788570339 | 23.89° C | 93% | 1013.6 hPa | 0 mm | - | 0 W/m² | - |
| 1788570035 | 23.89° C | 93% | 1013.6 hPa | 0 mm | - | 0 W/m² | - |
| 1788569731 | 24.44° C | 94% | 1013.4 hPa | 0 mm | - | 0 W/m² | - |
| 1788569426 | 24.44° C | 93% | 1013.3 hPa | 0 mm | - | 0 W/m² | - |
| 1788569121 | 24.44° C | 93% | 1013.4 hPa | 0 mm | - | 0 W/m² | - |
| 1788568816 | 24.44° C | 94% | 1013.2 hPa | 0 mm | - | 0 W/m² | - |
| 1788568512 | 25° C | 95% | 1013.3 hPa | 0 mm | - | 0 W/m² | - |
| 1788568207 | 25° C | 95% | 1013.4 hPa | 0 mm | - | 2 W/m² | - |
| 1788567902 | 25° C | 95% | 1013.7 hPa | 0 mm | - | 5 W/m² | - |
| 1788567596 | 25° C | 95% | 1013.8 hPa | 0 mm | - | 7 W/m² | - |
| 1788567291 | 25° C | 95% | 1013.7 hPa | 0 mm | - | 10 W/m² | - |
| 1788566991 | 25.56° C | 95% | 1013.5 hPa | 0 mm | - | 13 W/m² | - |
| 1788566687 | 25.56° C | 95% | 1013.5 hPa | 0 mm | - | 17 W/m² | - |
| 1788566382 | 25.56° C | 95% | 1013.4 hPa | 0 mm | - | 19 W/m² | - |
| 1788566078 | 26.11° C | 95% | 1013.3 hPa | 0 mm | - | 24 W/m² | - |
| 1788565777 | 26.11° C | 95% | 1013.2 hPa | 0 mm | - | 28 W/m² | - |
| 1788565472 | 26.11° C | 95% | 1013.3 hPa | 0 mm | - | 37 W/m² | - |
| 1788565168 | 26.11° C | 95% | 1013.2 hPa | 0 mm | - | 35 W/m² | - |
| 1788564863 | 26.11° C | 95% | 1013.2 hPa | 0 mm | - | 35 W/m² | - |
| 1788564560 | 26.11° C | 94% | 1013.3 hPa | 0 mm | - | 47 W/m² | - |
* Rain latest hour (hover to see other rain measurements)
** Current wind speed in m/s (hover to see current wind gust speed)